Wind_Speed
46 44 40 42 47 41 38 38 34 29 29 26 20 16 20 19 18 18 18 19 22 21 20 20 20 19 18 13 15 18 20 15 18 18 16 15 17 18 17 16 16 16 16
44 40 37 37 42 38 38 40 41 34 29 26 23 19 16 17 16 17 18 17 18 20 18 20 20 19 18 13 13 13 17 16 17 14 16 13 14 14 14 18 18 16 17
35 34 31 31 34 42 40 38 35 34 31 30 27 22 18 19 19 18 17 13 11 13 15 16 15 16 15 16 16 15 15 16 16 17 16 16 18 19 19 19 17 17 16
25 21 20 23 22 28 32 36 37 38 35 32 30 24 21 22 21 17 15 15 11 11 12 12 12 15 15 14 16 16 16 16 17 17 16 16 18 17 19 19 20 20 17
15 12 16 16 9 12 9 9 14 44 37 32 28 23 21 20 20 19 16 18 14 12 12 12 11 11 11 14 15 15 16 16 17 16 16 18 19 18 20 20 20 18 17
7 4 11 15 1 6 12 20 14 26 24 27 24 24 23 22 22 20 18 14 14 13 13 11 11 11 12 13 13 13 14 15 15 15 16 18 17 15 14 17 19 20 22
13 6 8 12 18 13 19 16 18 41 48 28 24 26 24 24 21 22 20 17 16 13 11 12 12 12 10 9 13 14 14 16 18 17 19 20 18 16 14 14 14 16 21
6 6 1 8 4 8 6 7 5 19 26 18 25 29 24 24 25 21 24 23 19 19 16 16 14 12 13 12 16 19 17 15 16 18 21 23 22 21 19 16 14 14 13
2 3 5 6 3 6 10 15 15 26 16 15 24 22 24 24 22 22 23 24 24 24 25 21 20 19 17 18 18 19 22 21 16 15 16 15 20 24 21 19 18 16 16
11 8 3 2 1 1 3 8 17 24 19 23 22 25 26 22 23 26 25 21 18 18 17 20 25 25 23 24 24 23 26 28 23 20 19 17 14 15 19 21 20 19 18
16 15 13 15 11 6 4 10 11 14 18 21 25 20 23 21 21 25 24 23 18 14 14 14 14 17 18 18 21 24 25 23 25 24 22 23 22 21 22 21 22 22 22
16 17 18 18 16 14 13 11 5 10 12 12 14 15 19 19 34 27 15 15 14 15 16 18 24 22 18 18 21 24 24 28 28 27 27 26 28 27 24 21 19 21 24
15 18 18 19 17 20 20 15 12 11 14 8 2 6 9 4 8 11 8 11 15 17 19 21 23 24 22 23 22 21 22 25 29 31 33 34 32 29 25 21 19 17 16
13 15 15 16 15 17 17 19 20 16 12 10 9 7 5 3 3 7 12 15 17 21 26 27 26 25 26 28 28 28 27 29 34 37 38 39 37 34 32 28 24 21 21
11 9 11 9 12 14 14 13 15 16 16 16 15 13 11 7 5 4 5 8 13 17 21 22 24 24 24 20 20 18 22 23 28 31 33 38 39 42 36 31 26 25 27
6 6 10 9 8 9 11 10 10 12 8 10 12 12 11 11 12 11 11 13 14 14 13 13 14 16 20 20 21 23 17 17 19 19 22 24 34 34 37 31 27 27 26
9 4 8 8 10 12 9 9 9 10 9 10 5 7 9 11 15 15 16 15 13 10 9 9 8 9 10 13 14 12 14 13 14 11 10 12 17 18 21 19 21 24 27
8 5 8 8 9 11 13 11 9 7 4 6 6 3 4 8 13 14 17 15 14 8 6 6 5 8 9 8 10 12 13 13 11 13 9 9 14 16 18 20 21 22 22
5 5 7 11 10 10 5 2 4 7 9 6 8 3 3 5 10 12 15 13 11 9 9 9 11 13 14 15 15 11 13 13 9 11 12 13 16 16 17 16 17 16 17
1 4 9 6 11 12 12 13 12 12 10 9 9 6 3 6 7 10 8 10 11 12 10 8 6 7 10 11 11 12 13 13 12 11 12 12 13 16 17 15 14 12 9
4 5 10 5 4 8 7 11 9 9 9 3 5 0 4 7 7 6 6 7 9 10 12 13 14 14 12 7 5 1 4 7 7 8 8 9 9 9 9 10 9 9 13
2 7 3 9 7 5 5 6 4 4 4 3 4 6 7 5 5 5 8 8 7 8 11 14 14 14 14 15 15 14 14 14 15 14 13 12 12 14 18 19 16 15 12
9 4 4 8 8 7 8 3 5 6 3 3 3 4 5 2 2 1 5 7 7 7 6 8 8 8 9 10 12 11 12 12 11 9 15 17 15 14 11 14 15 16 14
2 9 10 7 6 8 10 10 11 11 10 5 2 5 8 7 3 2 3 5 4 3 1 2 3 3 2 4 5 5 6 7 7 7 6 6 9 9 10 10 9 10 9
10 3 4 6 8 10 7 10 13 16 10 7 5 3 6 8 9 4 3 1 1 5 4 3 4 4 4 4 2 2 1 4 6 6 7 6 6 9 9 10 8 8 10
6 4 8 10 10 15 9 8 13 15 15 9 6 6 9 10 9 8 7 7 6 5 7 4 3 3 3 5 5 5 4 5 4 3 5 5 6 6 8 10 8 7 7
Wind_Direction
220 220 219 215 215 218 215 214 222 223 229 229 222 221 214 213 214 222 234 236 236 236 238 233 237 238 241 239 232 228 228 240 232 229 246 244 236 242 247 261 278 266 266
218 216 218 220 215 216 221 221 224 227 223 226 223 224 215 215 222 233 234 232 239 240 233 233 234 230 232 227 221 215 210 224 224 225 231 232 241 245 250 259 260 263 272
210 211 218 222 220 220 218 221 223 223 224 223 223 222 220 221 228 235 234 231 236 237 229 229 229 231 230 220 217 212 209 211 218 226 225 235 246 251 255 252 254 269 279
223 215 219 219 223 220 225 226 228 226 223 222 219 221 218 220 224 233 237 233 228 229 228 230 228 234 235 224 213 214 213 219 228 235 233 242 245 246 242 247 259 262 268
230 189 191 180 204 201 148 197 269 235 223 218 215 213 219 219 221 222 228 230 218 217 233 245 237 233 237 235 232 225 225 221 222 226 230 237 240 239 247 258 264 264 266
318 218 205 199 261 342 309 273 328 309 212 217 209 215 215 222 222 227 225 223 223 226 227 228 234 224 222 230 233 231 236 231 225 228 233 240 246 250 271 276 265 262 261
10 247 199 234 239 272 315 301 291 293 279 229 212 217 221 224 214 216 229 229 226 225 222 226 226 232 239 236 251 253 256 252 248 247 240 241 247 253 264 262 270 266 255
356 317 299 46 342 236 206 204 279 312 300 203 226 227 229 223 213 221 221 224 217 225 221 228 237 251 241 254 251 253 255 261 262 260 258 256 256 258 259 266 266 268 251
10 12 10 324 331 116 102 209 245 229 280 249 243 237 238 230 226 224 220 223 231 232 226 223 225 231 233 246 255 251 254 260 262 272 271 256 255 257 257 253 255 263 248
75 49 41 173 147 173 282 207 247 255 264 256 245 251 234 238 233 233 224 229 232 233 229 229 235 238 244 245 247 255 259 263 270 269 268 265 271 273 250 252 253 260 257
87 85 69 58 51 37 282 270 273 274 263 250 232 224 231 228 235 246 248 223 229 240 238 240 246 244 242 244 245 248 253 265 267 270 272 264 260 264 256 253 256 258 257
73 70 68 65 57 57 46 27 336 271 256 247 217 224 253 269 274 265 219 236 244 244 243 245 246 248 240 241 237 243 246 256 256 262 264 262 258 257 258 259 269 266 258
50 43 41 46 45 44 45 45 43 50 70 74 225 213 228 231 293 309 224 239 254 258 264 260 262 264 259 257 254 248 249 255 256 258 262 261 263 267 263 259 260 261 256
47 41 36 32 31 41 50 51 51 57 56 69 79 100 110 174 236 261 271 275 274 274 272 266 258 257 260 265 264 263 262 261 265 264 262 260 260 258 257 252 250 251 251
46 32 5 32 27 22 35 39 34 34 39 50 56 66 70 63 20 345 320 305 303 291 286 277 263 259 256 264 267 262 272 275 274 268 263 256 254 252 245 243 244 249 248
11 0 356 357 36 12 9 18 26 11 14 30 33 35 30 22 7 346 344 342 331 318 313 294 277 275 260 259 266 278 273 279 288 277 281 263 253 256 230 228 239 247 251
349 358 17 10 18 343 359 352 357 343 339 338 338 20 11 359 351 343 345 350 338 331 341 326 302 304 287 273 278 273 284 293 286 278 265 283 241 228 203 214 238 238 245
328 355 354 356 326 301 294 297 319 331 335 343 295 31 353 343 336 333 336 347 356 348 303 333 299 274 278 265 271 276 280 291 281 293 285 270 261 238 232 237 249 254 258
35 356 335 329 7 18 21 5 325 327 325 323 233 227 269 305 311 318 329 339 353 11 16 332 312 301 294 284 272 273 269 278 283 279 274 262 251 247 235 243 251 258 254
269 349 343 313 358 353 339 321 316 329 321 312 209 227 253 294 293 316 352 13 34 42 34 25 4 336 308 283 266 252 253 249 248 265 265 257 247 245 244 242 248 245 246
195 70 12 40 316 307 322 7 23 8 354 106 203 312 348 326 317 346 32 38 43 44 39 36 36 34 25 15 30 335 251 255 246 256 248 233 241 232 217 207 184 169 176
113 7 353 16 14 27 52 19 327 312 50 354 324 305 334 340 349 29 69 86 79 68 70 67 67 71 68 64 65 69 78 91 90 90 101 101 114 129 127 124 127 138 151
29 32 352 11 23 18 359 1 349 332 307 5 283 273 253 249 302 78 120 126 115 98 78 70 67 70 74 77 73 70 80 83 84 93 99 110 125 127 123 119 130 134 133
352 321 336 350 359 341 338 339 322 305 287 257 313 275 254 264 282 232 179 154 144 69 98 10 17 22 34 58 74 84 91 88 89 89 81 95 113 125 133 140 146 155 156
338 333 285 340 309 329 355 2 2 6 353 323 284 246 241 274 288 318 316 254 312 322 320 266 286 298 325 357 1 26 62 137 128 130 115 98 124 123 119 142 141 161 158
23 348 328 312 325 318 301 324 343 353 355 341 309 266 241 245 247 256 249 250 239 317 338 335 301 295 298 323 288 254 227 199 183 167 149 148 128 136 149 155 174 163 157
Height
1427 1433 1440 1446 1451 1458 1466 1471 1475 1480 1483 1485 1487 1489 1490 1491 1493 1494 1495 1498 1499 1500 1503 1504 1504 1507 1507 1508 1508 1508 1510 1510 1510 1513 1521 1523 1525 1527 1529 1528 1529 1529 1528
1423 1433 1439 1446 1452 1455 1459 1465 1470 1474 1477 1480 1483 1486 1489 1492 1493 1495 1494 1495 1497 1497 1498 1500 1500 1502 1503 1505 1504 1505 1507 1510 1511 1510 1516 1518 1521 1523 1524 1524 1525 1525 1524
1430 1430 1438 1444 1448 1449 1456 1462 1469 1472 1475 1477 1478 1480 1483 1486 1489 1491 1493 1492 1493 1495 1495 1497 1498 1498 1500 1501 1502 1502 1504 1506 1509 1512 1514 1514 1515 1516 1518 1520 1520 1520 1519
1432 1435 1440 1445 1446 1450 1455 1461 1463 1463 1468 1473 1474 1477 1480 1484 1486 1488 1490 1490 1489 1492 1494 1494 1495 1496 1497 1499 1499 1499 1501 1502 1505 1507 1508 1510 1512 1513 1514 1516 1516 1516 1517
1427 1424 1431 1437 1439 1443 1447 1451 1459 1464 1463 1463 1472 1474 1477 1479 1483 1485 1485 1488 1485 1486 1490 1492 1492 1492 1494 1497 1497 1497 1497 1498 1500 1502 1504 1505 1506 1508 1508 1510 1510 1510 1511
1435 1427 1432 1436 1439 1440 1445 1444 1444 1443 1459 1463 1466 1472 1472 1476 1479 1482 1482 1481 1483 1484 1485 1486 1488 1488 1490 1494 1496 1495 1494 1493 1493 1495 1496 1497 1498 1500 1502 1503 1504 1505 1504
1437 1437 1432 1435 1434 1436 1438 1439 1442 1436 1434 1465 1465 1470 1466 1469 1472 1477 1476 1477 1479 1480 1480 1483 1484 1484 1486 1488 1492 1493 1492 1491 1491 1492 1491 1491 1492 1494 1495 1497 1498 1499 1499
1445 1444 1434 1427 1429 1428 1426 1427 1438 1441 1429 1452 1462 1465 1460 1463 1467 1472 1473 1473 1473 1478 1475 1478 1479 1480 1480 1482 1485 1488 1488 1486 1487 1488 1488 1488 1488 1489 1490 1491 1493 1493 1494
1442 1442 1434 1430 1427 1428 1416 1422 1436 1444 1445 1449 1457 1459 1465 1466 1466 1467 1470 1469 1470 1472 1472 1472 1474 1475 1475 1477 1481 1482 1484 1483 1482 1482 1483 1483 1484 1483 1484 1486 1487 1489 1490
1441 1439 1439 1437 1431 1426 1424 1427 1435 1443 1441 1446 1449 1446 1448 1462 1462 1463 1462 1464 1464 1466 1467 1467 1470 1470 1472 1473 1474 1476 1477 1477 1477 1476 1477 1478 1479 1478 1479 1480 1482 1483 1484
1444 1447 1444 1437 1435 1430 1433 1437 1436 1437 1435 1437 1437 1444 1449 1452 1455 1454 1456 1458 1457 1459 1460 1462 1463 1465 1464 1467 1468 1469 1472 1474 1473 1472 1472 1472 1472 1472 1472 1473 1475 1477 1479
1446 1444 1441 1438 1439 1436 1434 1437 1432 1432 1434 1434 1438 1442 1445 1443 1443 1431 1444 1452 1453 1455 1455 1457 1456 1457 1457 1458 1460 1462 1464 1466 1467 1466 1466 1466 1466 1466 1467 1468 1469 1470 1472
1446 1441 1441 1441 1444 1441 1438 1437 1435 1435 1430 1431 1433 1435 1436 1437 1433 1433 1444 1449 1450 1451 1450 1449 1451 1451 1451 1452 1453 1455 1455 1457 1458 1459 1459 1457 1459 1461 1463 1464 1464 1465 1467
1446 1445 1445 1442 1442 1442 1441 1441 1442 1438 1436 1434 1433 1434 1435 1436 1441 1446 1445 1444 1443 1442 1445 1444 1442 1443 1445 1446 1446 1448 1449 1449 1450 1450 1450 1449 1451 1452 1453 1456 1457 1459 1460
1446 1446 1444 1445 1443 1441 1440 1441 1441 1437 1436 1434 1435 1437 1439 1440 1444 1444 1441 1439 1436 1435 1436 1434 1435 1434 1435 1438 1439 1439 1441 1440 1439 1439 1438 1439 1439 1441 1443 1445 1449 1452 1453
1446 1445 1445 1445 1444 1446 1446 1442 1440 1440 1441 1439 1439 1438 1440 1442 1440 1439 1436 1433 1430 1430 1428 1429 1428 1427 1429 1430 1432 1434 1432 1431 1431 1429 1430 1428 1428 1428 1428 1437 1442 1444 1445
1448 1447 1446 1445 1441 1442 1441 1442 1442 1441 1441 1440 1440 1437 1440 1439 1436 1437 1436 1429 1427 1426 1426 1425 1424 1425 1423 1425 1427 1427 1427 1424 1426 1423 1422 1422 1422 1421 1422 1427 1433 1436 1439
1445 1444 1444 1444 1443 1442 1442 1441 1440 1440 1441 1440 1440 1437 1440 1438 1437 1437 1435 1428 1423 1425 1425 1424 1422 1422 1421 1420 1423 1422 1422 1422 1420 1420 1418 1418 1420 1419 1422 1426 1428 1429 1431
1446 1447 1446 1444 1443 1442 1441 1440 1439 1439 1439 1437 1436 1437 1436 1438 1436 1433 1433 1430 1425 1422 1418 1418 1419 1419 1419 1419 1419 1419 1418 1418 1416 1417 1417 1415 1417 1417 1415 1420 1423 1425 1426
1446 1446 1445 1445 1444 1442 1439 1438 1434 1434 1435 1433 1436 1437 1437 1433 1433 1433 1431 1428 1424 1419 1418 1419 1418 1414 1417 1415 1414 1414 1414 1412 1413 1413 1413 1413 1412 1413 1415 1416 1418 1419 1421
1446 1445 1445 1444 1443 1441 1439 1439 1437 1436 1434 1434 1438 1436 1436 1433 1432 1429 1426 1427 1424 1424 1424 1421 1417 1415 1417 1419 1413 1412 1411 1411 1409 1407 1408 1410 1410 1410 1411 1414 1413 1417 1420
1442 1442 1442 1441 1439 1440 1439 1439 1438 1438 1439 1439 1434 1432 1432 1432 1430 1428 1425 1428 1426 1426 1426 1423 1423 1423 1423 1420 1415 1415 1413 1411 1410 1408 1407 1410 1410 1412 1412 1413 1416 1419 1423
1439 1439 1439 1438 1437 1437 1437 1437 1436 1436 1436 1435 1433 1432 1433 1432 1432 1430 1432 1430 1430 1428 1428 1427 1428 1425 1422 1420 1418 1417 1417 1418 1415 1414 1412 1412 1414 1415 1416 1417 1419 1421 1423
1437 1437 1437 1437 1436 1435 1434 1433 1432 1432 1431 1430 1431 1429 1430 1431 1431 1430 1430 1426 1427 1427 1427 1427 1425 1425 1422 1422 1422 1420 1419 1421 1422 1421 1420 1418 1417 1418 1418 1420 1422 1424 1427
1435 1434 1436 1435 1434 1432 1432 1430 1429 1428 1428 1427 1428 1430 1428 1429 1428 1428 1427 1426 1427 1428 1427 1426 1424 1423 1422 1422 1422 1421 1421 1423 1423 1422 1421 1421 1421 1419 1421 1422 1425 1427 1427
1434 1435 1434 1433 1432 1431 1430 1430 1429 1428 1427 1426 1425 1426 1427 1427 1427 1427 1427 1427 1427 1425 1424 1422 1422 1422 1422 1421 1420 1420 1421 1422 1423 1423 1421 1422 1422 1422 1423 1425 1428 1427 1430